Weather History for Jefferson City, MO

Change the Weather History Date:

Tuesday, December 3, 2013

  Actual Average Record
Temperature  
Mean Temperature 46 °F -  
Max Temperature 62 °F 46 °F 75 °F (1970)
Min Temperature 30 °F 27 °F 3 °F (2006)
Degree Days  
Heating Degree Days 19    
Moisture  
Dew Point 39 °F    
Average Humidity 89    
Maximum Humidity 100    
Minimum Humidity 52    
Precipitation  
Precipitation 0.02 in - - ()
Sea Level Pressure  
Sea Level Pressure 29.63 in    
Wind  
Wind Speed 5 mph (SE)    
Max Wind Speed 10 mph    
Max Gust Speed -    
Visibility 4 miles    
Events Fog    
Averages and records for this station are not official NWS values.
T = Trace of Precipitation, MM = Missing Value Source: NWS Daily Summary

Daily Weather History Graph

Daily Weather History Graph

Search for Another Location

Airport:

Trip Planner

Search our weather history database for the weather conditions in past years. The results will help you decide how hot, cold, wet, or windy it might be!

Date:

Astronomy

Dec. 03, 2013 Rise Set
Actual Time 7:09 AM CST 4:47 PM CST
Civil Twilight 6:40 AM CST 5:16 PM CST
Nautical Twilight 6:07 AM CST 5:49 PM CST
Astronomical Twilight 5:35 AM CST 6:21 PM CST
Moon 7:39 AM CST (12/3) 5:51 PM CST (12/3)
Length of Visible Light 10h 36m
Length of Day
9h 37m
New Moon, 1% of the Moon is Illuminated
Dec 3
New Moon
Dec 9
First Quarter
Dec 17
Full
Dec 25
Last Quarter
Jan 1
New

Hourly Weather History & Observations

Time (CST) Temp. Windchill Dew Point Humidity Pressure Visibility Wind Dir Wind Speed Gust Speed Precip Events Conditions
12:02 AM 33.8 °F 29.6 °F 32.0 °F 93% 29.67 in 2.5 mi ESE 4.6 mph - N/A   Partly Cloudy
12:08 AM 33.8 °F 28.6 °F 33.8 °F 100% 29.67 in 1.0 mi ESE 5.8 mph - N/A   Mist
12:15 AM 33.8 °F 29.6 °F 33.8 °F 100% 29.67 in 0.5 mi ESE 4.6 mph - N/A Fog Fog
12:37 AM 33.8 °F - 33.8 °F 100% 29.66 in 1.2 mi Calm Calm - N/A   Mostly Cloudy
12:53 AM 35.1 °F 31.0 °F 34.0 °F 96% 29.63 in 1.2 mi SE 4.6 mph - N/A   Partly Cloudy
1:16 AM 35.6 °F 29.2 °F 35.6 °F 100% 29.65 in 2.0 mi ESE 8.1 mph - N/A   Clear
1:53 AM 35.1 °F 30.1 °F 34.0 °F 96% 29.62 in 2.5 mi SE 5.8 mph - N/A   Clear
2:12 AM 35.6 °F 32.8 °F 35.6 °F 100% 29.64 in 1.5 mi ESE 3.5 mph - N/A   Partly Cloudy
2:17 AM 35.6 °F 32.8 °F 33.8 °F 93% 29.65 in 0.8 mi SE 3.5 mph - N/A   Mist
2:53 AM 35.1 °F 31.0 °F 33.1 °F 92% 29.62 in 0.5 mi ESE 4.6 mph - N/A Fog Fog
3:32 AM 33.8 °F 30.8 °F 30.2 °F 87% 29.65 in 0.2 mi ESE 3.5 mph - N/A Fog Fog
3:53 AM 30.0 °F - 30.0 °F 100% 29.62 in 0.2 mi Calm Calm - N/A Fog Light Freezing Fog
4:03 AM 32.0 °F - 30.2 °F 93% 29.64 in 0.2 mi Calm Calm - N/A Fog Fog
4:53 AM 30.9 °F 27.5 °F 30.0 °F 96% 29.63 in 0.2 mi ESE 3.5 mph - N/A Fog Light Freezing Fog
5:07 AM 32.0 °F 28.7 °F 30.2 °F 93% 29.65 in 0.5 mi SE 3.5 mph - N/A Fog Fog
5:16 AM 30.2 °F 25.4 °F 30.2 °F 100% 29.65 in 0.2 mi ESE 4.6 mph - N/A Fog Light Freezing Fog
5:43 AM 32.0 °F - 30.2 °F 93% 29.65 in 0.5 mi Calm Calm - N/A Fog Fog
5:53 AM 32.0 °F 27.5 °F 30.0 °F 92% 29.64 in 0.8 mi ESE 4.6 mph - N/A   Mist
6:01 AM 32.0 °F 27.5 °F 32.0 °F 100% 29.66 in 1.0 mi ESE 4.6 mph - N/A   Mist
6:08 AM 33.8 °F 27.7 °F 32.0 °F 93% 29.66 in 0.5 mi ESE 6.9 mph - N/A Fog Fog
6:37 AM 33.8 °F 27.7 °F 33.8 °F 100% 29.66 in 0.2 mi SE 6.9 mph - N/A Fog Fog
6:53 AM 34.0 °F 27.2 °F 33.1 °F 96% 29.64 in 0.5 mi ESE 8.1 mph - 0.01 in Fog Fog
7:05 AM 35.6 °F 29.2 °F 35.6 °F 100% 29.66 in 0.2 mi ESE 8.1 mph - N/A Fog Fog
7:14 AM 35.6 °F 29.9 °F 35.6 °F 100% 29.66 in 0.8 mi ESE 6.9 mph - N/A   Mist
7:21 AM 35.6 °F 29.9 °F 33.8 °F 93% 29.66 in 0.5 mi SE 6.9 mph - N/A Fog Fog
7:30 AM 35.6 °F 29.9 °F 33.8 °F 93% 29.66 in 0.2 mi ESE 6.9 mph - N/A Fog Fog
7:53 AM 39.9 °F 36.7 °F 39.9 °F 100% 29.64 in 0.2 mi ESE 4.6 mph - N/A Fog Fog
8:53 AM 44.1 °F 41.5 °F 43.0 °F 96% 29.64 in 0.5 mi ESE 4.6 mph - N/A Fog Fog
9:53 AM 46.9 °F - 46.0 °F 97% 29.65 in 0.8 mi SE 3.5 mph - N/A   Overcast
10:02 AM 46.4 °F 45.2 °F 46.4 °F 100% 29.67 in 1.0 mi SSE 3.5 mph - N/A   Overcast
10:26 AM 48.2 °F - 46.4 °F 93% 29.68 in 2.0 mi North - - N/A   Overcast
10:41 AM 48.2 °F - 46.4 °F 93% 29.67 in 3.0 mi East 3.5 mph - N/A   Overcast
10:53 AM 48.9 °F - 48.0 °F 97% 29.64 in 4.0 mi East 3.5 mph - N/A   Overcast
11:38 AM 53.6 °F - 48.2 °F 82% 29.65 in 7.0 mi SSE 5.8 mph - N/A   Mostly Cloudy
11:53 AM 55.0 °F - 48.9 °F 80% 29.62 in 9.0 mi South 8.1 mph - N/A   Mostly Cloudy
12:00 PM 55.4 °F - 48.2 °F 77% 29.64 in 9.0 mi South 9.2 mph - N/A   Scattered Clouds
12:53 PM 60.1 °F - 48.0 °F 64% 29.59 in 10.0 mi SSE 9.2 mph - N/A   Clear
1:53 PM 61.0 °F - 45.0 °F 56% 29.57 in 10.0 mi SSE 10.4 mph - 0.01 in   Clear
2:53 PM 62.1 °F - 44.1 °F 52% 29.55 in 10.0 mi SSE 8.1 mph - N/A   Clear
3:53 PM 61.0 °F - 44.1 °F 54% 29.55 in 10.0 mi SE 9.2 mph - N/A   Clear
4:53 PM 59.0 °F - 45.0 °F 60% 29.57 in 10.0 mi SSE 6.9 mph - N/A   Clear
5:53 PM 55.9 °F - 45.0 °F 67% 29.60 in 10.0 mi SE 5.8 mph - N/A   Clear
6:53 PM 52.0 °F - 44.1 °F 74% 29.60 in 10.0 mi ESE 5.8 mph - N/A   Clear
7:53 PM 45.0 °F 41.8 °F 41.0 °F 86% 29.60 in 10.0 mi ESE 5.8 mph - N/A   Clear
8:53 PM 50.0 °F - 44.1 °F 80% 29.60 in 10.0 mi East 5.8 mph - N/A   Clear
9:53 PM 51.1 °F - 46.0 °F 83% 29.61 in 9.0 mi ESE 6.9 mph - N/A   Mostly Cloudy
10:53 PM 51.1 °F - 46.9 °F 86% 29.62 in 7.0 mi ESE 4.6 mph - N/A   Overcast
11:53 PM 53.1 °F - 48.9 °F 86% 29.62 in 8.0 mi East 3.5 mph - N/A   Overcast